• In Latvia
  • List of Countries
  • For 7 days
  • Water Temperature
  • Satellite Maps
  • Weather Map
  • Weather Widgets
  • user-avatar
    Login

    Hourly Weather Lubango

    Today, 24 March, Friday

    Time Temperature Precipitation Wind Pressure Humidity
    00:00 +16°C° 0.2 mm 1 mps 609 mmHg 86%
    01:00 +14°C° 0 mm 0 mps 609 mmHg 87%
    02:00 +14°C° 0.1 mm 0 mps 609 mmHg 88%
    03:00 +14°C° 0.1 mm 0 mps 608 mmHg 90%
    04:00 +13°C° 0.1 mm 0 mps 608 mmHg 91%
    05:00 +14°C° 0 mm 0 mps 609 mmHg 90%
    06:00 +14°C° 0 mm 0 mps 609 mmHg 90%
    07:00 +15°C° 0 mm 0 mps 610 mmHg 86%
    08:00 +17°C° 0.1 mm 0 mps 611 mmHg 78%
    09:00 +21°C° 0.1 mm 1 mps 612 mmHg 70%
    10:00 +23°C° 0.1 mm 1 mps 612 mmHg 62%
    11:00 +24°C° 0.2 mm 1 mps 612 mmHg 57%
    12:00 +25°C° 0.2 mm 1 mps 612 mmHg 53%
    13:00 +26°C° 0.2 mm 1 mps 612 mmHg 48%
    14:00 +25°C° 0.5 mm 2 mps 611 mmHg 52%
    15:00 +25°C° 0.5 mm 2 mps 610 mmHg 56%
    16:00 +24°C° 0.5 mm 3 mps 610 mmHg 60%
    17:00 +21°C° 0.8 mm 2 mps 609 mmHg 69%
    18:00 +19°C° 0.8 mm 2 mps 609 mmHg 78%
    19:00 +17°C° 0.8 mm 2 mps 609 mmHg 88%
    20:00 +17°C° 1 mm 2 mps 609 mmHg 90%
    21:00 +16°C° 1 mm 1 mps 610 mmHg 91%
    22:00 +16°C° 1 mm 1 mps 610 mmHg 93%
    23:00 +16°C° 0.6 mm 1 mps 610 mmHg 93%

    Tomorrow, 25 March, Saturday

    Time Temperature Precipitation Wind Pressure Humidity
    00:00 +16°C° 0.6 mm 1 mps 610 mmHg 93%
    01:00 +15°C° 0.6 mm 0 mps 609 mmHg 92%
    02:00 +14°C° 0.2 mm 0 mps 609 mmHg 93%
    03:00 +14°C° 0.2 mm 0 mps 609 mmHg 93%
    04:00 +14°C° 0.2 mm 0 mps 608 mmHg 93%
    05:00 +14°C° 0.2 mm 0 mps 609 mmHg 91%
    06:00 +15°C° 0.2 mm 0 mps 609 mmHg 89%
    07:00 +16°C° 0.2 mm 1 mps 609 mmHg 88%
    08:00 +19°C° 0.1 mm 1 mps 610 mmHg 80%
    09:00 +21°C° 0.1 mm 1 mps 611 mmHg 71%
    10:00 +23°C° 0.1 mm 1 mps 612 mmHg 63%
    11:00 +24°C° 0.3 mm 1 mps 612 mmHg 60%
    12:00 +25°C° 0.3 mm 1 mps 611 mmHg 57%
    13:00 +26°C° 0.3 mm 1 mps 611 mmHg 54%
    14:00 +24°C° 1.8 mm 1 mps 610 mmHg 61%
    15:00 +23°C° 1.8 mm 1 mps 610 mmHg 67%
    16:00 +22°C° 1.8 mm 1 mps 609 mmHg 73%
    17:00 +21°C° 1.4 mm 1 mps 609 mmHg 78%
    18:00 +20°C° 1.4 mm 1 mps 609 mmHg 84%
    19:00 +17°C° 1.4 mm 0 mps 609 mmHg 89%
    20:00 +16°C° 1.3 mm 0 mps 609 mmHg 90%
    21:00 +16°C° 1.3 mm 0 mps 609 mmHg 90%
    22:00 +16°C° 1.3 mm 0 mps 610 mmHg 91%
    23:00 +16°C° 0.6 mm 0 mps 610 mmHg 91%

    Day after tomorrow, 26 March, Sunday

    Time Temperature Precipitation Wind Pressure Humidity
    00:00 +15°C° 0.6 mm 0 mps 609 mmHg 91%
    01:00 +15°C° 0.6 mm 0 mps 609 mmHg 91%
    02:00 +15°C° 0.3 mm 0 mps 609 mmHg 91%
    03:00 +15°C° 0.3 mm 0 mps 608 mmHg 91%
    04:00 +14°C° 0.3 mm 0 mps 608 mmHg 90%
    05:00 +15°C° 0.2 mm 0 mps 608 mmHg 90%
    06:00 +16°C° 0.2 mm 1 mps 609 mmHg 89%
    07:00 +16°C° 0.2 mm 1 mps 609 mmHg 88%
    08:00 +19°C° 0.5 mm 1 mps 610 mmHg 81%
    09:00 +21°C° 0.5 mm 1 mps 611 mmHg 74%
    10:00 +23°C° 0.5 mm 1 mps 612 mmHg 66%
    11:00 +24°C° 1 mm 1 mps 611 mmHg 64%
    12:00 +25°C° 1 mm 1 mps 611 mmHg 61%
    13:00 +25°C° 1 mm 1 mps 611 mmHg 59%
    14:00 +24°C° 1.3 mm 1 mps 610 mmHg 62%
    15:00 +24°C° 1.3 mm 1 mps 609 mmHg 66%
    16:00 +21°C° 1.3 mm 0 mps 609 mmHg 69%
    17:00 +21°C° 1.6 mm 1 mps 609 mmHg 75%
    18:00 +20°C° 1.6 mm 1 mps 609 mmHg 81%
    19:00 +19°C° 1.6 mm 1 mps 609 mmHg 87%
    20:00 +19°C° 1.8 mm 1 mps 609 mmHg 87%
    21:00 +18°C° 1.8 mm 1 mps 609 mmHg 88%
    22:00 +18°C° 1.8 mm 1 mps 609 mmHg 89%
    23:00 +18°C° 1.3 mm 1 mps 609 mmHg 90%

    27 March, Monday

    Time Temperature Precipitation Wind Pressure Humidity
    00:00 +18°C° 1.3 mm 1 mps 609 mmHg 90%
    01:00 +16°C° 1.3 mm 1 mps 609 mmHg 91%
    02:00 +16°C° 1.2 mm 1 mps 608 mmHg 91%
    03:00 +16°C° 1.2 mm 1 mps 608 mmHg 91%
    04:00 +16°C° 1.2 mm 1 mps 608 mmHg 91%
    05:00 +16°C° 0.5 mm 1 mps 608 mmHg 91%
    06:00 +16°C° 0.5 mm 1 mps 608 mmHg 90%
    07:00 +16°C° 0.5 mm 2 mps 609 mmHg 90%
    08:00 +18°C° 0.2 mm 2 mps 610 mmHg 83%
    09:00 +19°C° 0.2 mm 2 mps 610 mmHg 77%
    10:00 +20°C° 0.2 mm 2 mps 611 mmHg 71%
    11:00 +23°C° 0.2 mm 2 mps 611 mmHg 66%
    12:00 +24°C° 0.2 mm 2 mps 610 mmHg 60%
    13:00 +25°C° 0.2 mm 2 mps 610 mmHg 55%
    14:00 +24°C° 0.5 mm 1 mps 610 mmHg 57%
    15:00 +24°C° 0.5 mm 1 mps 609 mmHg 59%
    16:00 +23°C° 0.5 mm 1 mps 609 mmHg 61%
    17:00 +22°C° 0.4 mm 1 mps 609 mmHg 68%
    18:00 +20°C° 0.4 mm 1 mps 609 mmHg 74%
    19:00 +19°C° 0.4 mm 1 mps 608 mmHg 81%
    20:00 +18°C° 0.4 mm 1 mps 609 mmHg 83%
    21:00 +18°C° 0.4 mm 1 mps 609 mmHg 85%
    22:00 +18°C° 0.4 mm 1 mps 609 mmHg 87%
    23:00 +16°C° 0.5 mm 1 mps 609 mmHg 87%

    28 March, Tuesday

    Time Temperature Precipitation Wind Pressure Humidity
    00:00 +16°C° 0.5 mm 1 mps 609 mmHg 88%
    01:00 +16°C° 0.5 mm 1 mps 608 mmHg 89%
    02:00 +16°C° 0.6 mm 1 mps 608 mmHg 89%
    03:00 +16°C° 0.6 mm 1 mps 608 mmHg 89%
    04:00 +15°C° 0.6 mm 1 mps 608 mmHg 89%
    05:00 +16°C° 0.3 mm 1 mps 608 mmHg 88%
    06:00 +16°C° 0.3 mm 2 mps 608 mmHg 86%
    07:00 +16°C° 0.3 mm 2 mps 609 mmHg 85%
    08:00 +18°C° 0.1 mm 2 mps 610 mmHg 75%
    09:00 +21°C° 0.1 mm 3 mps 611 mmHg 65%
    10:00 +23°C° 0.1 mm 4 mps 612 mmHg 55%
    11:00 +25°C° 0.4 mm 4 mps 611 mmHg 53%
    12:00 +26°C° 0.4 mm 3 mps 611 mmHg 51%
    13:00 +27°C° 0.4 mm 3 mps 611 mmHg 48%
    14:00 +26°C° 1.1 mm 3 mps 610 mmHg 52%
    15:00 +26°C° 1.1 mm 2 mps 610 mmHg 55%
    16:00 +25°C° 1.1 mm 2 mps 609 mmHg 58%
    17:00 +23°C° 0.9 mm 2 mps 609 mmHg 65%
    18:00 +21°C° 0.9 mm 1 mps 608 mmHg 71%
    19:00 +19°C° 0.9 mm 1 mps 608 mmHg 78%
    20:00 +18°C° 0.9 mm 1 mps 608 mmHg 79%
    21:00 +18°C° 0.9 mm 1 mps 608 mmHg 81%
    22:00 +18°C° 0.9 mm 1 mps 608 mmHg 82%
    23:00 +16°C° 0.5 mm 1 mps 608 mmHg 82%

    29 March, Wednesday

    Time Temperature Precipitation Wind Pressure Humidity
    00:00 +16°C° 0.5 mm 1 mps 608 mmHg 83%
    01:00 +16°C° 0.5 mm 1 mps 608 mmHg 83%
    02:00 +16°C° 0.3 mm 1 mps 608 mmHg 83%
    03:00 +15°C° 0.3 mm 1 mps 608 mmHg 83%
    04:00 +15°C° 0.3 mm 1 mps 607 mmHg 84%
    05:00 +15°C° 0 mm 1 mps 608 mmHg 82%
    06:00 +16°C° 0 mm 2 mps 608 mmHg 81%
    07:00 +16°C° 0 mm 2 mps 609 mmHg 80%
    08:00 +18°C° 0 mm 3 mps 610 mmHg 70%
    09:00 +21°C° 0 mm 4 mps 611 mmHg 59%
    10:00 +23°C° 0 mm 4 mps 612 mmHg 49%
    11:00 +25°C° 0 mm 4 mps 611 mmHg 45%
    12:00 +26°C° 0 mm 4 mps 611 mmHg 42%
    13:00 +27°C° 0 mm 4 mps 611 mmHg 39%
    14:00 +27°C° 0.1 mm 3 mps 611 mmHg 40%
    15:00 +27°C° 0.1 mm 2 mps 610 mmHg 41%
    16:00 +27°C° 0.1 mm 2 mps 610 mmHg 42%
    17:00 +25°C° 0.1 mm 2 mps 609 mmHg 49%
    18:00 +21°C° 0.1 mm 2 mps 609 mmHg 56%
    19:00 +19°C° 0.1 mm 2 mps 608 mmHg 62%
    20:00 +18°C° 0 mm 2 mps 608 mmHg 62%
    21:00 +18°C° 0 mm 2 mps 609 mmHg 62%
    22:00 +17°C° 0 mm 2 mps 609 mmHg 62%
    23:00 +17°C° 0 mm 2 mps 609 mmHg 61%
    Show more